FW1833 Weather Reports


time (UTC)temp
C
wind
direction
speed
KPH
gust
KPH
rain 1hr
cm
rain 24hr
cm
rain mn
cm
humidity
%
barometer
mb
20260508151600 12 158 3.2 9.7 0.00 2.64 0.00 79 1001.8
20260508150054 12 169 3.2 9.7 0.00 2.64 0.00 81 1001.9
20260508144551 11 164 1.6 6.4 0.00 2.64 0.00 84 1001.9
20260508143052 11 130 1.6 6.4 0.00 2.64 0.00 85 1002.2
20260508141548 11 154 4.8 8.0 0.00 2.64 0.00 88 1002.3
20260508140046 10 138 4.8 9.7 0.00 2.64 0.00 90 1002.4
20260508134543 10 165 3.2 6.4 0.00 2.64 0.00 94 1002.6
20260508133100 10 140 3.2 8.0 0.00 2.64 0.00 95 1003.0
20260508131541 10 136 4.8 11.3 0.00 2.64 0.00 95 1002.9
20260508130039 10 113 4.8 9.7 0.00 2.64 0.00 97 1002.7
20260508124537 10 30 3.2 8.0 0.00 2.64 0.00 98 1002.4
20260508123039 9 98 1.6 6.4 0.00 2.64 0.00 99 1002.4
20260508121536 8 212 3.2 8.0 0.00 2.64 0.00 99 1002.5
20260508120033 7 60 0.0 6.4 0.00 2.64 0.00 99 1002.3
20260508114532 7 73 0.0 4.8 0.00 2.64 0.00 99 1002.8
20260508113037 7 96 3.2 6.4 0.00 2.64 0.00 99 1002.8
20260508111530 7 350 0.0 4.8 0.00 2.64 0.00 99 1003.0
20260508110028 7 2 3.2 6.4 0.00 2.64 0.00 99 1002.6
20260508104527 7 10 0.0 0.0 0.00 2.64 0.00 100 1002.9
20260508103028 5 10 0.0 0.0 0.00 2.64 0.00 99 1003.2
20260508101526 5 10 0.0 0.0 0.00 2.64 0.00 99 1002.9
20260508100025 5 10 0.0 0.0 0.00 2.64 0.00 99 1003.0
20260508094524 4 10 0.0 0.0 0.00 2.64 0.00 99 1003.1
20260508093023 4 10 0.0 0.0 0.00 2.64 0.00 99 1002.6
20260508091532 4 10 0.0 0.0 0.00 2.64 0.00 99 1002.3
20260508090021 4 10 0.0 0.0 0.00 2.64 0.00 99 1002.2
20260508084519 5 10 0.0 0.0 0.00 2.64 0.00 99 1002.2
20260508083028 5 10 0.0 0.0 0.00 2.64 0.00 99 1002.4
20260508081516 5 10 0.0 0.0 0.00 2.64 0.00 98 1001.9
20260508080013 5 10 0.0 0.0 0.00 2.64 0.00 99 1001.8
20260508074511 5 10 0.0 0.0 0.00 2.64 0.00 99 1001.8
20260508073010 6 10 0.0 0.0 0.00 2.64 0.00 98 1002.0
20260508071509 6 10 0.0 0.0 0.00 2.64 0.00 98 1002.0
20260508070006 6 10 0.0 0.0 0.00 2.64 0.00 98 1002.1
20260508064502 6 10 0.0 0.0 0.00 2.64 0.00 98 1002.1
20260508063139 7 10 0.0 0.0 0.00 2.64 0.00 98 1001.9
20260508061558 7 10 0.0 0.0 0.00 2.64 0.00 99 1001.9
20260508060057 7 10 0.0 3.2 0.00 2.64 0.00 99 1002.1
20260508054555 7 12 0.0 4.8 0.00 2.64 0.00 99 1002.1
20260508053100 7 285 1.6 6.4 0.00 2.64 0.00 99 1002.4
20260508051616 7 280 0.0 3.2 0.00 2.64 0.00 98 1002.1
20260508050049 7 280 0.0 0.0 0.00 2.64 0.00 99 1002.0
20260508044545 7 280 0.0 1.6 0.00 2.64 0.00 98 1001.9
20260508043043 8 280 0.0 3.2 0.00 2.64 0.00 98 1001.8
20260508041540 8 280 0.0 0.0 0.00 2.64 0.00 98 1002.0
20260508040038 8 281 0.0 3.2 0.00 2.64 0.00 99 1002.2
20260508034535 8 280 0.0 1.6 0.00 2.64 0.00 98 1002.3
20260508033040 9 280 1.6 4.8 0.00 2.64 0.00 99 1002.5
20260508031532 9 280 3.2 6.4 0.00 2.64 0.00 99 1002.5
20260508030029 9 301 3.2 8.0 0.00 2.64 0.00 99 1002.6
20260508024531 8 169 0.0 1.6 0.00 2.64 2.64 99 1002.6
20260508023033 8 169 0.0 0.0 0.00 2.64 2.64 99 1002.8
20260508021533 8 169 0.0 6.4 0.00 2.64 2.64 99 1002.6
20260508020028 8 169 0.0 0.0 0.00 2.64 2.64 98 1002.5
20260508014527 8 169 0.0 1.6 0.00 2.64 2.64 98 1002.5
20260508013026 8 169 0.0 4.8 0.00 2.64 2.64 98 1002.8
20260508011531 8 169 0.0 1.6 0.00 2.64 2.64 98 1002.4
20260508010037 9 170 1.6 4.8 0.00 2.64 2.64 99 1002.3
20260508004524 10 170 0.0 1.6 0.00 2.64 2.64 98 1002.2
20260508003023 10 170 0.0 4.8 0.00 2.64 2.64 98 1002.4
20260508001523 10 170 0.0 0.0 0.00 2.64 2.64 98 1002.6
20260508000025 10 170 0.0 3.2 0.00 2.64 2.64 99 1002.6
20260507234522 10 170 0.0 0.0 0.00 2.64 2.64 99 1002.7
20260507233022 10 170 0.0 3.2 0.00 2.64 2.64 99 1002.7
20260507231521 10 170 0.0 1.6 0.00 2.64 2.64 98 1002.6
20260507230035 10 170 1.6 4.8 0.00 2.64 2.64 98 1002.5
20260507224522 10 170 0.0 6.4 0.00 2.64 2.64 98 1002.7
20260507223030 10 173 3.2 8.0 0.00 2.64 2.64 98 1002.8
20260507221518 10 174 3.2 6.4 0.00 2.64 2.64 99 1002.7
20260507220018 10 177 0.0 9.7 0.00 2.64 2.64 99 1002.7
20260507214518 10 190 6.4 11.3 0.00 2.64 2.64 99 1002.9
20260507213017 10 113 0.0 3.2 0.03 2.64 2.64 99 1003.2
20260507211516 10 114 0.0 3.2 0.05 2.64 2.64 98 1003.2
20260507210017 9 113 0.0 3.2 0.10 2.64 2.64 98 1002.7
20260507204514 9 114 1.6 8.0 0.15 2.64 2.64 98 1002.4
20260507203027 9 152 4.8 11.3 0.23 2.62 2.62 98 1002.3
20260507201506 8 115 6.4 14.5 0.38 2.59 2.59 97 1003.0
20260507200003 9 83 3.2 11.3 0.51 2.54 2.54 97 1003.4
20260507194501 10 152 8.0 11.3 0.76 2.49 2.49 97 1003.7
20260507193100 11 162 3.2 6.4 0.86 2.39 2.39 97 1003.9
20260507191557 11 183 0.0 3.2 0.94 2.21 2.21 97 1004.4
20260507190055 11 183 3.2 16.1 1.09 2.03 2.03 98 1004.9
20260507184553 11 197 4.8 11.3 1.30 1.75 1.75 97 1005.1
20260507183055 11 185 4.8 11.3 1.27 1.55 1.55 97 1005.2
20260507181558 10 177 4.8 12.9 1.09 1.27 1.27 97 1005.6
20260507180054 10 183 0.0 9.7 0.81 0.94 0.94 97 1005.9
20260507174556 10 211 6.4 24.1 0.41 0.43 0.43 97 1005.8
20260507173054 10 184 4.8 24.1 0.25 0.28 0.28 97 1005.0
20260507171558 10 156 9.7 20.9 0.15 0.18 0.18 97 1005.1
20260507170049 10 135 6.4 16.1 0.10 0.13 0.13 97 1005.5
20260507164542 10 142 3.2 9.7 0.03 0.05 0.05 97 1006.1
20260507163042 10 113 4.8 8.0 0.03 0.03 0.03 96 1006.6
20260507161544 10 119 3.2 9.7 0.03 0.03 0.03 95 1007.1
20260507160039 10 120 3.2 8.0 0.03 0.03 0.03 95 1007.5
20260507154533 10 171 4.8 11.3 0.00 0.00 0.00 94 1008.0
20260507153035 11 167 3.2 16.1 0.00 0.00 0.00 94 1008.3